• In Österreich
  • Länderverzeichnis
  • Für 7 Tage
  • Wassertemperatur
  • Satellitenkarten
  • Wetterkarte
  • News
  • Widgets
  • user-avatar
    Anmelden

    Stündliche Wetter Kuiaba

    Heute, 25 Juni, Montag

    Zeit Temperatur Niederschläge Wind Luftdruck Luftfeuchtigkeit
    00:00 +24°C° 0 mm 1 m/S 741 mmHg 47%
    01:00 +24°C° 0 mm 1 m/S 741 mmHg 48%
    02:00 +23°C° 0 mm 1 m/S 741 mmHg 49%
    03:00 +23°C° 0 mm 1 m/S 741 mmHg 49%
    04:00 +22°C° 0 mm 1 m/S 741 mmHg 50%
    05:00 +21°C° 0 mm 2 m/S 741 mmHg 50%
    06:00 +23°C° 0 mm 2 m/S 742 mmHg 48%
    07:00 +25°C° 0 mm 2 m/S 742 mmHg 45%
    08:00 +26°C° 0 mm 2 m/S 743 mmHg 43%
    09:00 +29°C° 0 mm 2 m/S 743 mmHg 37%
    10:00 +31°C° 0 mm 3 m/S 743 mmHg 32%
    11:00 +35°C° 0 mm 3 m/S 743 mmHg 27%
    12:00 +36°C° 0 mm 2 m/S 742 mmHg 25%
    13:00 +37°C° 0 mm 2 m/S 741 mmHg 24%
    14:00 +36°C° 0 mm 1 m/S 741 mmHg 22%
    15:00 +35°C° 0 mm 1 m/S 740 mmHg 26%
    16:00 +33°C° 0 mm 1 m/S 740 mmHg 30%
    17:00 +29°C° 0 mm 0 m/S 740 mmHg 34%
    18:00 +29°C° 0 mm 1 m/S 740 mmHg 36%
    19:00 +28°C° 0 mm 1 m/S 740 mmHg 37%
    20:00 +26°C° 0 mm 1 m/S 741 mmHg 39%
    21:00 +26°C° 0 mm 1 m/S 741 mmHg 41%
    22:00 +25°C° 0 mm 1 m/S 741 mmHg 42%
    23:00 +24°C° 0 mm 1 m/S 741 mmHg 44%

    Morgen, 26 Juni, Dienstag

    Zeit Temperatur Niederschläge Wind Luftdruck Luftfeuchtigkeit
    00:00 +24°C° 0 mm 1 m/S 741 mmHg 45%
    01:00 +23°C° 0 mm 1 m/S 741 mmHg 45%
    02:00 +23°C° 0 mm 1 m/S 741 mmHg 46%
    03:00 +23°C° 0 mm 1 m/S 741 mmHg 47%
    04:00 +22°C° 0 mm 1 m/S 741 mmHg 47%
    05:00 +22°C° 0 mm 1 m/S 741 mmHg 48%
    06:00 +23°C° 0 mm 1 m/S 741 mmHg 46%
    07:00 +25°C° 0 mm 2 m/S 742 mmHg 44%
    08:00 +26°C° 0 mm 2 m/S 742 mmHg 42%
    09:00 +29°C° 0 mm 2 m/S 742 mmHg 37%
    10:00 +32°C° 0 mm 2 m/S 742 mmHg 32%
    11:00 +35°C° 0 mm 3 m/S 742 mmHg 27%
    12:00 +36°C° 0 mm 2 m/S 742 mmHg 26%
    13:00 +37°C° 0 mm 2 m/S 741 mmHg 25%
    14:00 +37°C° 0 mm 2 m/S 740 mmHg 23%
    15:00 +35°C° 0 mm 1 m/S 740 mmHg 27%
    16:00 +33°C° 0 mm 1 m/S 739 mmHg 32%
    17:00 +29°C° 0 mm 0 m/S 739 mmHg 36%
    18:00 +28°C° 0 mm 0 m/S 740 mmHg 38%
    19:00 +28°C° 0 mm 1 m/S 740 mmHg 40%
    20:00 +27°C° 0 mm 1 m/S 740 mmHg 42%
    21:00 +26°C° 0 mm 1 m/S 741 mmHg 43%
    22:00 +26°C° 0 mm 1 m/S 741 mmHg 44%
    23:00 +25°C° 0 mm 1 m/S 741 mmHg 46%

    übermorgen, 27 Juni, Mittwoch

    Zeit Temperatur Niederschläge Wind Luftdruck Luftfeuchtigkeit
    00:00 +25°C° 0 mm 1 m/S 741 mmHg 47%
    01:00 +24°C° 0 mm 1 m/S 741 mmHg 48%
    02:00 +24°C° 0 mm 1 m/S 740 mmHg 50%
    03:00 +23°C° 0 mm 1 m/S 740 mmHg 51%
    04:00 +23°C° 0 mm 1 m/S 741 mmHg 52%
    05:00 +22°C° 0 mm 1 m/S 741 mmHg 53%
    06:00 +24°C° 0 mm 1 m/S 741 mmHg 51%
    07:00 +25°C° 0 mm 1 m/S 742 mmHg 49%
    08:00 +27°C° 0 mm 1 m/S 743 mmHg 46%
    09:00 +29°C° 0 mm 2 m/S 743 mmHg 41%
    10:00 +32°C° 0 mm 2 m/S 743 mmHg 35%
    11:00 +35°C° 0 mm 2 m/S 743 mmHg 29%
    12:00 +36°C° 0 mm 2 m/S 742 mmHg 27%
    13:00 +37°C° 0 mm 2 m/S 741 mmHg 25%
    14:00 +37°C° 0 mm 2 m/S 740 mmHg 23%
    15:00 +35°C° 0 mm 1 m/S 740 mmHg 27%
    16:00 +33°C° 0 mm 1 m/S 740 mmHg 31%
    17:00 +29°C° 0 mm 0 m/S 740 mmHg 34%
    18:00 +30°C° 0 mm 1 m/S 740 mmHg 36%
    19:00 +28°C° 0 mm 1 m/S 741 mmHg 38%
    20:00 +27°C° 0 mm 1 m/S 741 mmHg 40%
    21:00 +26°C° 0 mm 1 m/S 741 mmHg 41%
    22:00 +26°C° 0 mm 1 m/S 742 mmHg 42%
    23:00 +25°C° 0 mm 1 m/S 742 mmHg 44%

    28 Juni, Donnerstag

    Zeit Temperatur Niederschläge Wind Luftdruck Luftfeuchtigkeit
    00:00 +24°C° 0 mm 1 m/S 741 mmHg 45%
    01:00 +24°C° 0 mm 1 m/S 741 mmHg 46%
    02:00 +24°C° 0 mm 2 m/S 741 mmHg 47%
    03:00 +23°C° 0 mm 1 m/S 741 mmHg 49%
    04:00 +23°C° 0 mm 1 m/S 741 mmHg 50%
    05:00 +22°C° 0 mm 1 m/S 741 mmHg 52%
    06:00 +24°C° 0 mm 1 m/S 742 mmHg 49%
    07:00 +25°C° 0 mm 1 m/S 742 mmHg 47%
    08:00 +27°C° 0 mm 1 m/S 743 mmHg 44%
    09:00 +29°C° 0 mm 2 m/S 743 mmHg 38%
    10:00 +32°C° 0 mm 2 m/S 743 mmHg 32%
    11:00 +36°C° 0 mm 3 m/S 743 mmHg 26%
    12:00 +37°C° 0 mm 3 m/S 742 mmHg 24%
    13:00 +37°C° 0 mm 3 m/S 741 mmHg 22%
    14:00 +38°C° 0 mm 2 m/S 740 mmHg 21%
    15:00 +36°C° 0 mm 2 m/S 740 mmHg 24%
    16:00 +33°C° 0 mm 1 m/S 740 mmHg 28%
    17:00 +32°C° 0 mm 1 m/S 740 mmHg 31%
    18:00 +30°C° 0 mm 1 m/S 740 mmHg 34%
    19:00 +28°C° 0 mm 1 m/S 740 mmHg 36%
    20:00 +27°C° 0 mm 1 m/S 740 mmHg 38%
    21:00 +26°C° 0 mm 1 m/S 741 mmHg 40%
    22:00 +26°C° 0 mm 1 m/S 741 mmHg 41%
    23:00 +25°C° 0 mm 1 m/S 741 mmHg 42%

    29 Juni, Freitag

    Zeit Temperatur Niederschläge Wind Luftdruck Luftfeuchtigkeit
    00:00 +24°C° 0 mm 1 m/S 741 mmHg 44%
    01:00 +24°C° 0 mm 1 m/S 741 mmHg 46%
    02:00 +24°C° 0 mm 1 m/S 740 mmHg 47%
    03:00 +23°C° 0 mm 1 m/S 741 mmHg 49%
    04:00 +23°C° 0 mm 1 m/S 741 mmHg 50%
    05:00 +21°C° 0 mm 2 m/S 741 mmHg 52%
    06:00 +24°C° 0 mm 2 m/S 742 mmHg 49%
    07:00 +25°C° 0 mm 2 m/S 742 mmHg 47%
    08:00 +27°C° 0 mm 2 m/S 743 mmHg 44%
    09:00 +30°C° 0 mm 3 m/S 743 mmHg 37%
    10:00 +33°C° 0 mm 3 m/S 743 mmHg 31%
    11:00 +36°C° 0 mm 4 m/S 742 mmHg 24%
    12:00 +37°C° 0 mm 3 m/S 742 mmHg 23%
    13:00 +37°C° 0 mm 3 m/S 741 mmHg 21%
    14:00 +38°C° 0 mm 3 m/S 740 mmHg 20%
    15:00 +36°C° 0 mm 2 m/S 740 mmHg 23%
    16:00 +33°C° 0 mm 1 m/S 740 mmHg 27%
    17:00 +31°C° 0 mm 1 m/S 740 mmHg 30%
    18:00 +30°C° 0 mm 1 m/S 740 mmHg 32%
    19:00 +28°C° 0 mm 1 m/S 740 mmHg 34%
    20:00 +27°C° 0 mm 1 m/S 741 mmHg 36%
    21:00 +26°C° 0 mm 1 m/S 741 mmHg 37%
    22:00 +25°C° 0 mm 1 m/S 741 mmHg 39%
    23:00 +25°C° 0 mm 1 m/S 741 mmHg 40%

    30 Juni, Samstag

    Zeit Temperatur Niederschläge Wind Luftdruck Luftfeuchtigkeit
    00:00 +24°C° 0 mm 1 m/S 740 mmHg 42%
    01:00 +24°C° 0 mm 1 m/S 740 mmHg 44%
    02:00 +23°C° 0 mm 1 m/S 740 mmHg 45%
    03:00 +23°C° 0 mm 1 m/S 740 mmHg 47%
    04:00 +23°C° 0 mm 1 m/S 740 mmHg 48%
    05:00 +22°C° 0 mm 1 m/S 740 mmHg 50%
    06:00 +24°C° 0 mm 1 m/S 741 mmHg 48%
    07:00 +25°C° 0 mm 1 m/S 741 mmHg 45%
    08:00 +27°C° 0 mm 1 m/S 742 mmHg 43%
    09:00 +29°C° 0 mm 2 m/S 742 mmHg 37%
    10:00 +32°C° 0 mm 2 m/S 742 mmHg 31%
    11:00 +36°C° 0 mm 3 m/S 742 mmHg 25%
    12:00 +37°C° 0 mm 2 m/S 741 mmHg 23%
    13:00 +37°C° 0 mm 2 m/S 740 mmHg 22%
    14:00 +38°C° 0 mm 2 m/S 739 mmHg 21%
    15:00 +36°C° 0 mm 2 m/S 739 mmHg 24%
    16:00 +33°C° 0 mm 1 m/S 739 mmHg 28%
    17:00 +32°C° 0 mm 1 m/S 739 mmHg 31%
    18:00 +30°C° 0 mm 1 m/S 739 mmHg 33%
    19:00 +29°C° 0 mm 1 m/S 739 mmHg 35%
    20:00 +27°C° 0 mm 1 m/S 739 mmHg 37%
    21:00 +26°C° 0 mm 1 m/S 739 mmHg 39%
    22:00 +26°C° 0 mm 1 m/S 739 mmHg 41%
    23:00 +25°C° 0 mm 1 m/S 739 mmHg 43%
    Mehr zeigen